This is the latest recevied weather packets stored in our database for station/object HASTNG-WX. If no packets are shown the sender has not sent any weather packets the latest 10 day(s).
| Time | Temp. | Humidity | Pressure | Rain* | Wind** | Luminosity | Snow |
|---|---|---|---|---|---|---|---|
| 1777995053 | 10.56° C | 49% | 977.3 hPa | 0 mm | - | - | - |
| 1777994132 | 10.56° C | 49% | 977.3 hPa | 0 mm | - | - | - |
| 1777993268 | 10.56° C | 49% | 977.3 hPa | 0 mm | - | - | - |
| 1777992332 | 10.56° C | 75% | 977.2 hPa | 0.25 mm | - | - | - |
| 1777991451 | 11.11° C | 55% | 977.2 hPa | 0.25 mm | - | - | - |
| 1777990532 | 10° C | 55% | 977.2 hPa | 0.51 mm | - | - | - |
| 1777989667 | 9.44° C | 55% | 977.2 hPa | 0.51 mm | - | - | - |
| 1777988732 | 10.56° C | 63% | 977 hPa | 0 mm | - | - | - |
| 1777987852 | 10.56° C | 63% | 977 hPa | 0 mm | - | - | - |
| 1777986932 | 10.56° C | 63% | 977 hPa | 0 mm | - | - | - |
| 1777986062 | 11.11° C | 63% | 977 hPa | 0 mm | - | - | - |
| 1777985131 | 10.56° C | 68% | 976 hPa | 0 mm | - | - | - |
| 1777984251 | 10.56° C | 70% | 974.6 hPa | 0 mm | - | - | - |
| 1777983331 | 10° C | 70% | 974.6 hPa | 0 mm | - | - | - |
| 1777982471 | 10° C | 70% | 974.6 hPa | 0 mm | - | - | - |
| 1777981532 | 10° C | 67% | 974.6 hPa | 0 mm | - | - | - |
| 1777980649 | 10° C | 63% | 973.3 hPa | 0 mm | - | - | - |
| 1777979731 | 10° C | 63% | 973.3 hPa | 0 mm | - | - | - |
| 1777978866 | 10° C | 63% | 973.3 hPa | 0 mm | - | - | - |
| 1777977931 | 10.56° C | 57% | 971.8 hPa | 0 mm | - | - | - |
| 1777977050 | 10.56° C | 57% | 971.9 hPa | 0 mm | - | - | - |
| 1777976131 | 10.56° C | 57% | 971.9 hPa | 0 mm | - | - | - |
| 1777975264 | 10.56° C | 57% | 971.9 hPa | 0 mm | - | - | - |
| 1777974331 | 11.11° C | 68% | 972 hPa | 0 mm | - | - | - |
| 1777973454 | 11.11° C | 71% | 971.8 hPa | 0 mm | - | - | - |
* Rain latest hour (hover to see other rain measurements)
** Current wind speed in m/s (hover to see current wind gust speed)